Wetbulb
68.63 69.79 69.43 68.78 69.32 70.03 69.43 69.93 70.26 71.13 71.88 72.47 72.85 72.23 72.50 72.79 72.51 72.85 72.30 72.66 72.38 72.59 72.32 71.79 72.33 72.65 72.20 72.15 72.20 72.02 71.78 70.08 68.49 69.96 71.04 72.39 72.90 74.20 71.82 70.22 69.28 68.20 67.58
69.18 69.91 69.39 69.12 69.52 69.33 68.79 69.82 71.16 71.23 71.85 72.07 72.64 72.56 72.65 72.51 73.01 72.48 72.18 72.97 72.10 72.00 72.28 72.68 72.52 72.65 73.19 72.19 72.35 72.38 72.00 71.60 69.39 69.17 69.78 69.88 72.18 72.54 71.54 69.39 69.43 67.91 67.30
69.11 69.51 69.75 69.06 69.30 69.41 69.09 69.36 71.39 71.94 71.56 71.32 71.59 71.95 72.37 72.15 71.91 72.06 72.17 72.50 72.53 72.59 72.27 72.29 72.77 72.62 72.69 73.04 72.43 71.88 72.21 71.48 71.44 69.97 69.71 70.68 71.39 72.25 70.19 68.95 67.62 66.77 66.49
69.46 69.35 69.47 69.63 69.80 69.99 69.99 69.83 70.49 71.78 71.64 71.42 71.36 71.16 71.61 72.56 72.96 73.13 72.78 72.72 72.41 72.26 72.67 72.60 72.97 72.73 72.82 72.25 72.25 72.07 72.04 71.22 70.76 70.26 69.77 69.85 70.34 71.20 71.40 69.14 66.51 65.38 65.53
69.40 69.07 69.33 70.08 70.42 70.61 70.26 70.43 70.70 71.22 71.74 72.09 72.15 72.10 72.30 71.95 72.10 72.93 73.22 73.05 72.79 72.63 72.78 72.81 72.89 72.78 70.64 70.53 72.80 72.19 71.62 70.98 70.42 69.78 69.29 68.98 69.14 69.89 69.62 70.14 68.19 67.32 65.38
69.06 69.17 69.64 69.91 69.81 70.17 70.54 70.44 70.55 70.93 71.42 71.72 71.72 72.03 72.07 72.22 67.20 67.43 71.74 73.31 72.94 72.44 71.86 72.57 72.96 71.64 70.77 67.54 67.50 68.31 69.81 70.64 69.84 69.11 68.62 68.35 69.01 69.26 70.19 69.75 69.75 67.40 65.99
70.34 69.90 69.89 70.07 69.81 69.60 70.18 70.54 70.40 70.39 71.23 71.11 71.57 71.92 71.92 72.38 64.95 65.12 67.07 72.47 71.69 71.54 71.72 71.39 71.64 70.15 69.85 71.68 67.40 66.73 66.53 65.39 66.83 69.91 69.04 68.57 68.44 65.86 65.49 66.84 68.21 68.76 67.20
70.21 69.78 69.07 69.94 69.69 69.97 70.04 70.25 70.51 70.98 70.75 70.91 71.19 71.73 71.95 67.63 62.11 62.80 64.65 67.25 69.13 69.09 68.28 68.76 68.13 66.13 63.50 64.95 68.90 69.95 67.92 63.21 64.06 65.30 64.61 60.57 60.25 59.72 60.95 65.34 66.07 62.70 60.83
67.45 67.65 68.49 69.70 69.19 69.23 69.59 70.17 70.80 70.93 70.89 70.76 71.36 70.63 69.91 65.25 61.15 61.85 64.30 67.72 67.27 64.72 64.57 65.07 65.23 63.18 59.62 60.62 66.58 67.34 61.90 58.68 57.95 57.66 57.41 57.18 57.95 58.57 58.23 62.86 62.81 62.39 62.74
67.16 68.15 67.45 67.52 68.91 69.12 69.41 69.77 69.66 69.95 69.93 68.08 66.04 66.02 63.28 64.21 59.15 60.26 63.12 68.08 63.55 60.86 60.05 59.43 59.25 59.84 57.37 57.74 65.87 66.49 63.15 59.92 58.41 57.44 56.43 57.29 57.49 57.19 57.28 55.29 55.60 58.50 56.87
65.58 65.78 66.64 67.32 66.80 68.13 68.49 69.37 68.85 67.17 64.57 62.74 62.02 62.24 62.56 62.83 61.96 60.08 59.17 65.46 62.77 60.87 60.00 58.82 57.80 55.52 54.41 54.75 57.18 62.38 62.98 59.94 60.17 57.57 57.33 57.91 58.21 58.39 56.97 55.95 55.09 54.33 55.34
67.42 66.02 66.25 66.55 66.86 68.10 66.79 65.54 64.23 63.47 61.82 60.94 60.39 60.14 60.30 60.03 57.04 57.34 59.17 60.02 60.32 59.00 57.35 57.63 56.17 53.41 52.73 54.38 56.40 55.19 56.16 59.27 58.97 57.77 58.79 58.44 58.17 55.48 54.93 55.81 55.58 54.44 55.39
64.94 64.23 64.53 64.44 65.18 65.52 64.21 63.33 62.45 62.02 61.12 60.41 60.25 59.41 58.53 58.46 57.56 53.95 54.01 55.70 56.69 58.03 58.66 56.88 53.96 51.10 51.88 53.53 53.85 55.06 56.73 59.33 58.90 58.36 58.59 57.52 55.64 54.63 53.90 53.98 55.43 56.73 55.60
63.65 63.49 63.11 62.18 61.72 61.72 61.97 62.49 61.70 60.98 60.27 59.91 59.19 58.10 57.58 57.76 57.60 57.64 57.44 57.28 56.31 57.16 57.00 56.25 55.38 54.79 54.00 54.55 55.11 55.27 56.35 56.74 56.34 54.47 53.50 53.14 53.55 53.53 52.05 51.66 51.63 52.85 54.25
61.57 60.03 58.40 56.96 55.17 53.22 50.00 52.15 57.66 56.74 59.11 59.67 59.03 58.56 57.34 56.53 54.70 51.52 55.11 57.57 57.59 55.74 56.73 57.44 55.86 55.32 55.08 55.51 55.70 54.85 54.30 54.24 53.27 52.69 52.41 52.67 52.48 52.67 52.03 52.29 51.86 52.93 53.05
59.09 58.40 57.20 56.64 55.17 53.92 52.85 50.18 46.60 46.50 47.53 47.57 49.02 53.27 49.67 47.93 45.27 44.65 44.85 45.94 46.85 48.84 56.09 56.04 55.04 54.97 54.02 53.85 53.98 52.54 52.60 52.61 51.73 51.66 52.14 50.64 49.96 49.84 50.19 51.02 51.50 51.72 51.91
59.63 58.36 56.82 56.84 56.26 55.68 56.10 55.37 53.04 48.78 44.44 43.00 43.13 43.73 45.21 46.41 45.21 44.13 43.24 44.08 46.51 51.08 55.76 55.24 54.63 54.01 53.09 53.09 52.91 52.21 50.86 50.31 50.61 50.38 50.21 49.77 50.18 49.89 49.77 48.59 50.14 51.20 50.05
59.39 55.35 58.18 57.27 57.02 56.17 55.28 53.87 53.87 55.01 51.81 48.39 43.44 43.74 42.13 41.78 41.39 42.48 43.25 47.57 53.16 54.11 56.51 55.06 54.23 53.55 53.20 52.88 52.40 51.80 50.40 50.37 49.87 48.98 48.87 48.99 48.53 48.30 47.84 47.00 47.27 49.56 49.52
60.33 59.77 59.69 59.05 58.86 57.64 55.14 54.33 51.99 49.60 48.41 47.27 46.86 45.53 43.28 40.85 40.75 41.56 44.53 54.78 54.29 52.95 54.08 54.45 54.49 53.77 53.22 52.51 51.70 50.07 49.88 49.05 48.71 48.43 47.57 47.26 46.99 47.28 46.83 46.47 46.59 44.19 45.23
60.79 59.05 59.55 59.05 58.20 57.05 56.17 53.37 50.76 49.50 49.52 49.48 50.78 51.07 49.39 50.90 53.08 51.06 47.74 49.67 52.78 50.87 50.90 53.79 54.39 54.01 52.75 51.64 50.79 49.56 48.74 47.60 47.33 47.32 46.53 46.25 46.02 46.47 46.09 46.17 46.31 46.35 46.55
59.58 59.24 57.84 57.31 56.61 55.38 54.49 52.64 51.44 50.98 51.24 51.99 53.05 52.35 47.40 53.01 49.62 49.39 48.42 48.48 49.41 51.06 51.93 53.01 54.40 54.16 53.70 52.37 51.62 50.52 49.95 48.88 48.22 47.74 47.04 46.64 46.77 46.87 47.23 47.01 46.73 46.50 46.82
58.99 57.76 57.07 56.44 55.76 55.31 55.32 54.96 53.70 52.58 52.23 52.08 52.00 50.49 44.50 49.84 50.28 51.37 51.67 51.42 50.88 52.07 53.34 54.51 54.30 54.43 54.20 53.04 52.64 52.05 50.82 50.19 50.14 49.10 48.03 47.65 47.51 47.56 47.30 47.12 47.22 47.27 47.21
54.20 52.99 52.15 52.10 53.76 52.47 53.18 52.60 53.91 53.94 52.97 53.38 53.24 50.86 51.04 51.66 50.72 51.06 51.67 52.32 52.34 52.43 52.43 54.22 54.89 54.06 54.07 53.97 53.56 53.61 52.90 52.70 52.11 50.81 49.34 48.25 48.06 48.32 47.89 47.66 47.48 47.32 47.18
53.14 52.59 51.79 51.47 50.97 50.79 51.20 50.68 50.21 47.75 50.56 50.38 50.41 50.17 50.53 50.96 51.41 51.57 51.71 52.60 52.60 53.40 52.73 53.14 54.63 55.10 54.69 54.42 53.18 53.83 53.67 52.64 50.84 50.68 50.06 48.93 48.18 46.00 47.42 47.67 47.46 46.54 46.28
53.03 52.82 52.62 50.24 49.44 49.15 49.57 49.69 49.79 50.08 50.13 50.53 50.53 50.35 50.77 51.59 51.91 52.24 52.61 52.80 52.59 52.82 53.37 53.72 53.76 54.68 55.30 55.20 54.23 53.43 46.83 39.55 48.73 43.71 49.14 48.98 47.75 47.48 47.60 48.20 47.20 46.54 46.38
53.13 52.30 50.02 49.22 48.69 49.23 49.23 49.16 49.22 49.59 49.68 50.17 50.34 50.43 50.61 50.57 50.70 51.72 52.63 52.98 52.96 53.07 52.83 53.10 53.88 54.43 54.53 53.95 53.11 45.82 33.74 35.51 42.89 39.50 48.72 49.01 48.31 48.12 48.04 47.54 46.90 47.79 47.10
MSLP
1015.57 1015.93 1016.26 1016.55 1016.82 1017.12 1017.38 1017.51 1017.64 1017.82 1017.98 1018.06 1018.15 1018.35 1018.58 1018.84 1019.11 1019.51 1019.77 1019.87 1020.04 1020.06 1020.11 1020.23 1020.18 1020.14 1020.11 1020.06 1020.05 1020.10 1020.10 1020.12 1019.99 1019.47 1019.40 1018.93 1018.88 1019.04 1019.26 1019.45 1019.72 1019.72 1019.84
1015.12 1015.45 1015.82 1016.24 1016.43 1016.75 1017.09 1017.21 1017.39 1017.54 1017.59 1017.56 1017.91 1018.13 1018.29 1018.53 1018.88 1019.12 1019.44 1019.56 1019.72 1019.84 1019.80 1019.98 1019.89 1019.89 1019.85 1019.89 1019.95 1019.95 1019.97 1020.04 1019.96 1019.70 1019.56 1019.34 1019.22 1019.29 1019.43 1019.75 1019.78 1019.87 1019.99
1014.52 1014.77 1015.21 1015.58 1016.01 1016.14 1016.45 1016.77 1016.97 1017.17 1017.35 1017.49 1017.74 1017.90 1018.09 1018.23 1018.49 1018.75 1018.96 1019.17 1019.31 1019.45 1019.50 1019.60 1019.54 1019.64 1019.54 1019.59 1019.62 1019.68 1019.69 1019.77 1019.82 1019.81 1019.66 1019.54 1019.39 1019.50 1019.74 1019.86 1020.00 1020.08 1020.21
1013.56 1014.16 1014.49 1014.83 1015.11 1015.49 1015.79 1016.17 1016.59 1016.84 1017.04 1017.23 1017.50 1017.64 1017.84 1018.07 1018.22 1018.42 1018.64 1018.83 1018.98 1019.11 1019.16 1019.12 1019.04 1019.07 1019.14 1019.23 1019.37 1019.44 1019.48 1019.63 1019.63 1019.74 1019.66 1019.50 1019.40 1019.38 1019.47 1019.68 1019.94 1020.08 1020.14
1012.24 1013.28 1013.59 1013.95 1014.34 1014.64 1015.19 1015.55 1015.90 1016.44 1016.76 1016.85 1017.02 1017.27 1017.47 1017.73 1017.78 1017.93 1018.16 1018.37 1018.48 1018.63 1018.67 1018.67 1018.68 1018.65 1018.71 1018.92 1019.13 1019.18 1019.32 1019.37 1019.48 1019.57 1019.53 1019.47 1019.39 1019.39 1019.45 1019.55 1019.66 1019.72 1019.98
1012.02 1012.29 1012.57 1013.27 1013.92 1013.97 1014.45 1014.95 1015.46 1015.75 1016.25 1016.62 1016.72 1016.89 1017.13 1017.36 1017.42 1017.57 1017.87 1018.10 1018.14 1018.27 1018.27 1018.28 1018.32 1018.48 1018.44 1018.60 1018.90 1019.04 1019.08 1019.13 1019.25 1019.40 1019.53 1019.51 1019.47 1019.47 1019.37 1019.42 1019.52 1019.73 1019.85
1011.79 1012.01 1012.31 1012.51 1013.00 1013.56 1013.87 1014.22 1014.73 1015.19 1015.67 1016.02 1016.25 1016.46 1016.65 1016.84 1017.05 1017.33 1017.57 1017.73 1017.89 1018.06 1018.13 1018.19 1018.34 1018.64 1018.53 1018.66 1018.90 1019.11 1019.17 1019.21 1019.22 1019.22 1019.36 1019.55 1019.64 1019.86 1019.86 1019.56 1019.57 1019.69 1019.77
1011.40 1011.67 1011.90 1012.22 1012.61 1013.07 1013.60 1013.80 1014.14 1014.51 1015.01 1015.49 1015.81 1016.00 1016.24 1016.75 1016.94 1017.26 1017.48 1017.81 1018.14 1018.32 1018.52 1018.45 1018.69 1019.12 1019.26 1019.13 1019.09 1019.20 1019.48 1019.65 1019.61 1019.57 1019.73 1020.07 1020.11 1020.07 1019.96 1019.70 1019.70 1019.94 1020.16
1011.13 1011.42 1011.69 1011.97 1012.25 1012.64 1013.04 1013.27 1013.60 1014.00 1014.42 1014.85 1015.21 1015.67 1016.16 1016.83 1017.18 1017.27 1017.50 1017.67 1018.16 1018.61 1018.69 1018.79 1019.04 1019.14 1019.06 1019.04 1019.40 1019.50 1019.79 1020.05 1020.16 1020.02 1020.16 1020.40 1020.55 1020.28 1019.91 1019.86 1020.11 1020.20 1020.21
1011.07 1011.37 1011.65 1012.14 1012.11 1012.07 1012.49 1012.91 1013.06 1013.45 1013.88 1014.80 1015.42 1015.77 1016.20 1016.70 1017.08 1017.34 1017.43 1017.43 1017.89 1018.42 1018.81 1018.71 1018.85 1019.44 1019.68 1019.62 1019.62 1019.55 1019.88 1020.17 1020.32 1020.37 1020.48 1020.52 1020.67 1020.62 1020.58 1020.74 1020.73 1020.73 1020.65
1011.08 1011.27 1011.42 1011.76 1012.00 1011.98 1012.36 1012.70 1013.01 1013.57 1014.27 1015.05 1015.74 1016.24 1016.63 1016.83 1017.10 1017.11 1017.04 1017.36 1017.85 1018.56 1019.17 1019.56 1019.89 1020.01 1019.89 1019.92 1019.94 1019.82 1019.72 1019.94 1020.21 1020.37 1020.60 1020.77 1020.91 1020.90 1020.99 1020.96 1021.03 1021.03 1021.04
1010.81 1011.17 1011.16 1011.29 1011.53 1011.62 1012.45 1012.94 1013.10 1014.20 1014.70 1015.22 1015.70 1016.51 1017.07 1017.27 1017.16 1017.02 1016.72 1017.21 1017.94 1018.57 1019.38 1020.00 1020.27 1020.29 1020.29 1020.06 1020.08 1019.95 1020.03 1020.08 1020.41 1020.64 1020.85 1021.05 1021.16 1021.30 1021.44 1021.39 1021.41 1021.42 1021.37
1010.80 1011.15 1011.33 1011.13 1011.44 1011.46 1011.61 1013.12 1013.44 1014.15 1014.85 1015.35 1015.83 1016.43 1017.19 1017.52 1017.73 1017.24 1017.52 1017.69 1018.39 1018.90 1019.38 1019.77 1020.25 1020.57 1020.45 1020.62 1020.52 1020.39 1020.29 1020.57 1020.86 1021.04 1021.36 1021.46 1021.49 1021.36 1021.37 1021.49 1021.48 1021.46 1021.64
1010.98 1011.44 1011.85 1012.24 1012.19 1012.18 1012.73 1013.00 1013.24 1014.04 1014.66 1015.24 1015.69 1016.32 1017.32 1017.87 1017.84 1018.14 1018.70 1018.70 1019.22 1019.49 1019.72 1020.05 1020.40 1020.78 1020.82 1021.08 1020.98 1020.87 1020.97 1021.00 1021.25 1021.32 1021.69 1021.84 1021.92 1021.74 1021.69 1021.77 1021.81 1021.67 1021.55
1011.47 1011.96 1012.55 1012.91 1013.10 1013.37 1014.01 1014.32 1014.02 1014.25 1014.47 1014.89 1015.85 1015.86 1017.01 1017.81 1018.52 1019.12 1018.46 1018.91 1019.68 1020.04 1020.06 1020.23 1020.67 1020.89 1021.05 1021.38 1021.59 1021.53 1021.56 1021.76 1021.74 1021.94 1022.02 1022.01 1021.99 1021.97 1022.05 1021.93 1022.12 1021.97 1021.83
1011.92 1012.56 1013.09 1013.64 1014.10 1014.13 1014.72 1015.44 1015.82 1015.41 1015.33 1015.85 1016.17 1016.46 1017.39 1018.10 1018.96 1019.53 1019.16 1019.24 1019.93 1020.36 1020.21 1020.48 1020.79 1021.09 1021.40 1021.34 1021.48 1021.78 1022.15 1022.36 1022.64 1022.44 1022.37 1022.50 1022.45 1022.41 1022.26 1022.22 1022.25 1022.20 1022.00
1012.26 1012.95 1013.63 1014.32 1014.63 1014.72 1015.22 1015.88 1016.81 1017.21 1016.96 1017.23 1017.08 1017.50 1018.40 1018.64 1019.34 1019.82 1019.64 1019.66 1020.09 1020.29 1020.62 1020.94 1021.11 1021.33 1021.65 1021.82 1021.79 1022.00 1022.35 1022.56 1022.72 1022.88 1022.93 1022.98 1022.72 1022.65 1022.53 1022.58 1022.62 1022.54 1022.54
1012.73 1013.28 1013.77 1014.32 1015.02 1015.26 1015.92 1016.38 1016.89 1017.53 1017.55 1018.36 1018.69 1018.84 1019.13 1019.45 1019.89 1020.06 1019.97 1020.13 1020.30 1020.54 1020.83 1020.94 1021.17 1021.34 1021.64 1022.04 1022.30 1022.40 1022.73 1022.81 1022.87 1022.79 1023.10 1023.39 1023.25 1023.20 1022.94 1023.00 1023.04 1022.94 1023.01
1013.25 1013.59 1014.13 1014.62 1015.08 1015.53 1016.02 1016.49 1016.97 1017.56 1017.92 1018.42 1018.94 1019.27 1019.84 1020.09 1020.19 1020.33 1020.36 1020.35 1020.52 1020.63 1020.84 1020.99 1021.24 1021.54 1021.80 1022.29 1022.41 1022.75 1022.92 1022.94 1023.11 1023.17 1023.39 1023.60 1023.42 1023.38 1023.40 1023.43 1023.45 1023.44 1023.32
1013.43 1013.58 1014.15 1014.92 1015.65 1015.99 1016.09 1016.56 1017.12 1017.60 1018.21 1018.79 1019.21 1019.61 1020.11 1020.23 1020.09 1020.25 1020.39 1020.37 1020.47 1020.59 1020.81 1020.82 1020.99 1021.35 1021.82 1022.01 1022.29 1022.53 1022.96 1023.18 1023.39 1023.42 1023.67 1023.75 1023.54 1023.72 1023.80 1023.65 1023.63 1023.60 1023.59
1013.86 1014.28 1014.54 1015.25 1015.85 1016.39 1016.95 1017.08 1017.42 1017.91 1018.46 1018.91 1019.35 1019.66 1020.01 1019.90 1020.05 1020.14 1020.35 1020.34 1020.50 1020.48 1020.59 1020.77 1021.04 1021.43 1021.71 1021.86 1022.14 1022.33 1022.51 1022.77 1023.06 1023.36 1023.71 1023.65 1023.66 1023.91 1024.04 1024.00 1023.89 1023.75 1023.65
1014.13 1014.53 1014.93 1015.52 1016.07 1016.69 1017.14 1017.52 1017.77 1018.09 1018.51 1018.90 1019.33 1019.74 1019.87 1019.97 1019.98 1020.06 1020.10 1020.22 1020.19 1020.21 1020.12 1020.39 1020.84 1021.01 1021.28 1021.68 1021.89 1022.29 1022.54 1022.81 1023.05 1023.11 1023.18 1023.48 1023.65 1023.75 1023.77 1023.67 1023.61 1023.46 1023.45
1014.54 1014.94 1015.49 1015.90 1016.09 1016.75 1017.22 1017.59 1017.81 1018.00 1018.42 1018.74 1018.98 1019.45 1019.76 1019.77 1019.84 1019.92 1020.10 1020.08 1020.12 1020.22 1020.20 1020.44 1020.63 1020.77 1021.00 1021.38 1021.62 1021.72 1021.91 1022.22 1022.42 1022.62 1022.84 1023.44 1023.55 1023.55 1023.72 1023.64 1023.43 1023.48 1023.43
1014.70 1015.07 1015.44 1015.92 1016.23 1016.75 1017.13 1017.59 1018.01 1018.24 1018.54 1018.72 1019.18 1019.43 1019.48 1019.82 1019.96 1020.04 1019.92 1020.10 1020.10 1020.07 1019.99 1020.10 1020.21 1020.47 1020.71 1020.81 1021.03 1021.51 1021.83 1022.09 1022.42 1022.40 1022.78 1023.24 1023.37 1023.45 1023.65 1023.38 1023.37 1023.43 1023.51
1014.86 1015.17 1015.59 1016.06 1016.45 1016.91 1017.43 1017.76 1018.18 1018.55 1018.86 1019.20 1019.47 1019.69 1019.85 1020.01 1020.09 1020.25 1020.06 1020.28 1019.99 1019.61 1019.48 1019.82 1019.96 1019.97 1020.16 1020.43 1020.83 1021.18 1021.74 1022.23 1022.37 1022.63 1022.78 1023.01 1023.21 1023.29 1023.24 1023.29 1023.36 1023.44 1023.57
1014.83 1015.24 1015.70 1016.27 1016.82 1017.26 1017.70 1018.21 1018.73 1019.01 1019.18 1019.61 1019.91 1020.00 1020.11 1020.18 1020.27 1020.34 1020.10 1019.84 1019.97 1020.13 1019.96 1019.78 1019.73 1019.84 1020.16 1020.59 1020.87 1021.12 1021.71 1022.16 1022.41 1022.66 1022.89 1023.20 1023.24 1023.35 1023.47 1023.49 1023.57 1023.57 1023.74
Wind_Speed
10 9 8 8 7 5 5 5 5 4 5 5 5 6 7 6 5 4 4 4 4 3 3 3 4 3 3 3 2 2 2 2 2 2 2 2 3 2 3 4 2 3 3
9 9 9 8 8 8 7 7 5 6 5 5 4 5 6 6 5 6 6 5 6 5 5 4 6 4 4 3 3 5 3 3 2 3 1 1 2 3 2 3 2 2 2
9 10 9 10 9 10 9 7 5 5 5 4 4 5 7 8 6 6 6 6 6 6 5 5 6 4 4 2 2 3 3 2 3 2 2 1 1 1 2 1 1 1 1
9 10 12 12 12 10 9 9 8 7 5 6 6 6 6 5 6 6 6 6 6 6 7 7 7 6 6 4 3 4 3 3 3 3 2 2 2 1 2 2 3 3 3
11 13 15 12 11 10 9 9 9 8 7 6 5 6 5 6 5 7 6 6 6 7 6 7 7 7 7 6 3 3 3 3 3 3 2 1 2 1 2 0 2 1 3
13 15 15 11 10 11 10 9 8 9 9 7 7 7 6 6 9 10 8 6 6 6 7 7 6 6 6 6 5 4 4 3 2 1 1 2 3 2 1 1 1 1 3
14 12 10 11 11 11 12 10 10 10 8 10 9 8 9 9 9 8 9 5 4 4 6 5 3 1 1 1 1 2 6 6 2 1 2 1 1 3 3 2 1 2 1
11 7 6 8 9 7 8 10 9 9 10 9 10 11 9 2 8 6 3 1 2 3 5 4 4 3 4 4 2 1 4 5 5 3 4 3 3 4 3 2 2 2 2
8 8 6 6 7 6 9 9 9 8 7 9 5 6 7 6 7 6 5 5 5 5 5 5 2 3 7 7 3 2 3 4 7 11 10 10 10 13 12 2 2 1 1
8 7 6 4 3 4 5 7 4 4 5 5 4 5 7 7 4 6 7 4 6 5 4 6 10 5 6 6 1 3 4 3 4 4 4 6 7 8 12 7 3 2 1
7 7 6 4 2 2 1 2 4 6 9 8 7 5 5 4 3 7 9 5 5 5 4 4 4 6 7 8 6 3 1 7 7 5 4 4 4 5 4 4 5 3 2
8 5 5 4 3 3 5 4 9 8 8 9 10 6 3 4 5 3 11 10 10 7 6 4 4 7 6 8 6 6 6 7 4 3 3 2 3 3 4 4 4 4 4
5 3 2 3 3 7 9 8 8 9 8 8 7 7 5 4 5 13 11 13 11 8 5 7 9 6 8 7 9 8 7 5 4 3 3 2 1 1 2 1 1 3 4
7 6 5 4 5 7 5 3 9 8 8 7 7 8 6 5 6 5 5 8 10 8 9 6 7 7 8 5 5 7 6 5 4 4 3 2 3 3 2 3 2 2 1
8 7 6 5 6 6 8 6 3 3 5 9 6 8 8 8 2 2 7 6 5 6 6 4 3 3 4 5 5 6 6 5 5 3 3 3 3 2 2 3 2 1 1
9 6 6 5 5 6 7 7 19 13 15 14 13 10 6 10 9 6 9 11 9 5 3 4 5 5 4 4 5 5 5 5 4 3 4 3 3 3 3 2 1 2 2
9 8 6 6 4 7 7 7 6 9 18 15 16 14 8 11 10 8 9 10 5 4 4 4 4 4 4 4 4 4 3 3 3 4 4 3 2 3 3 3 3 2 3
8 10 6 6 4 6 5 7 6 5 7 4 11 8 9 9 8 7 7 6 3 5 3 4 4 4 3 3 3 3 2 2 3 3 3 3 4 3 3 4 4 4 3
8 7 7 5 5 6 5 6 5 5 6 5 4 7 6 7 7 6 3 2 3 3 3 3 3 3 3 3 3 3 2 2 2 3 3 2 3 3 3 3 3 4 2
5 12 8 6 5 4 4 6 5 6 5 5 4 4 3 2 2 1 1 2 3 3 3 3 4 4 4 4 4 3 3 2 2 2 2 2 2 2 2 2 3 3 3
5 6 11 6 6 5 4 5 5 6 5 4 3 3 4 2 3 2 2 2 3 3 3 3 3 3 4 4 4 3 3 3 3 2 2 2 2 2 1 1 1 1 2
4 5 5 6 6 5 5 5 5 5 5 5 4 3 7 3 3 2 2 3 3 3 3 4 4 5 5 6 5 5 4 3 3 3 3 3 2 2 1 1 1 1 1
5 6 5 4 5 6 4 4 4 4 4 4 4 5 4 4 2 2 2 2 2 3 3 4 4 5 5 5 5 5 4 3 3 3 4 4 3 2 1 2 1 1 1
6 6 6 5 5 5 5 5 4 6 5 4 4 3 3 2 1 2 1 2 2 2 3 4 6 7 7 7 5 4 3 3 2 3 5 4 3 3 3 2 1 2 3
7 7 6 6 6 6 6 6 6 6 6 5 5 4 4 4 4 3 3 1 1 3 3 2 4 8 10 9 7 7 5 7 5 6 4 3 3 3 1 1 3 3 3
6 6 7 6 6 6 7 7 6 5 6 5 4 4 4 4 3 3 4 6 5 5 5 3 3 4 5 5 8 11 7 9 8 6 5 3 3 2 1 2 3 2 3
Wind_Direction
200 205 206 195 207 208 206 219 219 212 203 202 217 220 205 195 202 206 219 222 234 247 241 246 257 242 251 245 245 242 222 198 238 298 274 327 342 62 95 86 78 82 78
211 207 207 211 196 194 209 218 213 221 217 224 214 216 209 199 196 201 214 217 223 238 247 242 256 252 256 247 243 235 241 219 220 265 291 303 2 24 116 123 129 110 118
189 201 207 207 202 210 201 210 213 216 219 209 210 209 202 199 193 208 215 230 230 233 248 246 249 243 265 244 228 238 230 216 216 221 268 257 246 167 128 128 226 182 108
191 208 210 206 202 210 206 191 202 214 217 206 200 216 224 222 203 203 205 219 226 232 238 241 246 236 234 240 236 231 226 239 232 240 245 267 262 192 190 211 230 213 205
196 202 215 215 204 193 195 200 195 199 217 223 215 219 219 212 217 216 215 224 230 241 240 243 245 243 231 227 214 228 213 221 220 234 252 277 263 229 235 236 259 217 220
214 210 206 193 197 194 197 195 202 202 207 212 216 219 228 232 230 218 213 220 228 234 251 247 235 240 242 220 234 239 216 218 231 200 199 259 276 292 331 296 252 207 273
214 223 206 187 190 192 201 194 199 205 207 219 222 216 226 230 213 228 226 226 236 255 265 264 231 112 113 180 243 95 76 71 49 207 243 243 349 30 321 298 265 253 262
205 199 172 180 195 197 199 202 205 194 203 210 220 224 227 139 123 113 89 251 284 50 42 43 79 49 20 354 337 161 73 36 8 34 69 71 45 340 267 298 330 99 93
170 166 158 174 177 178 202 203 207 202 196 204 201 193 182 140 146 158 177 161 132 111 96 74 109 64 17 348 276 124 83 59 67 84 89 82 59 42 38 10 14 252 165
155 142 129 148 138 144 198 211 187 190 191 135 125 115 123 135 118 195 206 171 143 124 86 77 57 51 4 353 232 186 174 149 121 84 59 50 43 40 49 56 9 358 61
143 146 148 146 139 49 100 147 121 123 118 107 101 89 96 116 157 215 158 120 127 116 106 80 57 78 67 46 47 45 111 143 131 124 110 85 57 44 31 29 27 23 6
171 168 171 152 161 133 119 109 112 121 122 127 123 110 85 72 23 117 117 115 120 123 123 117 98 69 58 64 58 57 84 104 114 102 88 63 41 35 14 12 31 41 52
124 132 93 95 174 138 140 154 133 136 138 140 135 126 106 78 62 56 71 103 112 114 119 117 110 97 92 71 62 68 71 88 95 83 58 47 50 5 359 45 62 63 65
120 123 120 112 88 90 86 145 140 143 141 142 131 116 108 93 89 78 94 92 86 96 113 96 94 90 75 68 55 51 62 68 80 92 80 43 356 21 45 25 30 18 58
105 95 75 70 69 66 61 23 59 60 113 135 130 122 123 112 78 207 121 105 104 112 106 98 84 63 72 70 66 60 59 60 64 66 67 55 46 31 32 22 28 9 83
110 101 94 87 93 85 79 60 36 45 65 59 91 109 64 89 104 77 92 99 117 142 73 101 98 98 95 97 87 75 56 54 43 54 63 52 36 22 23 34 35 44 94
116 114 105 106 105 103 105 98 84 51 67 64 68 68 86 119 108 114 107 95 106 84 94 101 99 96 94 84 89 85 94 68 60 54 52 39 44 50 40 30 20 33 63
111 106 111 110 103 105 105 111 116 121 106 75 42 79 83 96 107 127 135 113 90 77 116 113 111 116 105 101 108 98 97 94 84 88 70 40 37 30 34 30 24 26 34
135 131 126 118 118 118 116 104 91 95 95 103 112 78 79 90 98 86 109 109 121 107 112 108 124 130 131 129 116 116 121 100 92 81 67 50 41 36 41 32 21 34 37
106 123 117 117 124 118 115 120 115 112 113 123 129 132 142 148 127 107 84 126 128 131 152 169 169 152 153 150 146 135 119 112 118 104 89 63 58 55 58 52 39 31 31
116 124 125 115 120 121 126 122 120 125 131 141 147 139 146 130 135 134 153 151 175 170 184 204 171 151 172 169 161 157 162 163 164 160 175 152 123 98 97 60 45 37 17
123 123 114 128 128 124 128 127 132 139 147 152 150 133 161 137 158 159 164 202 207 210 204 188 179 183 179 182 175 172 175 186 185 187 185 180 185 170 165 196 197 80 42
122 118 122 132 129 131 127 140 147 140 149 163 160 157 180 190 194 199 232 260 263 254 226 212 200 186 180 183 185 182 174 196 204 182 176 191 204 208 224 264 275 212 153
126 123 121 115 118 122 120 112 103 96 114 112 123 132 134 165 212 250 257 296 299 283 239 228 217 203 189 189 174 180 200 180 173 169 169 188 206 200 230 249 278 150 134
142 138 133 131 124 116 113 106 102 101 102 107 114 110 102 94 94 84 58 21 356 1 357 290 230 217 212 191 178 181 187 184 172 144 145 153 167 163 191 234 155 147 144
130 122 126 122 117 118 118 118 119 120 116 113 111 100 96 88 75 61 45 37 31 24 11 348 309 232 209 197 191 180 157 158 133 135 137 147 148 163 184 152 147 137 116